Location: BGSU Observatory
(41.3799°N, 83.6397°W)
Time: 20:16:48
(UTC-04:00)

Amateur Radio Satellites - All Passes

Search period start: 24 June 2017 19:46
Search period end: 25 June 2017 19:46
Location: BGSU Observatory, 41.3799°N, 83.6397°W

Satellite Date Start Highest point End Downlink Frequencies (MHz)
Time Altitude Azimuth
CUBESAT XI-V 24 Jun 19:48:40 19:50:19 12° 299° (WNW) 19:51:59 437.345
XW-2A 24 Jun 19:53:26 19:56:39 38° 73° (ENE) 19:59:53 145.665 - 145.685
STRAND 1 24 Jun 19:54:13 19:57:26 17° 91° (E) 20:00:39 437.568
ZACube-1 24 Jun 20:08:24 20:11:13 16° 64° (ENE) 20:14:03 437.345
UWE-3 24 Jun 20:09:40 20:13:35 28° 68° (ENE) 20:17:34 435.000/436.395/437.385
AAUSAT CUBESAT 2 24 Jun 20:13:32 20:17:03 28° 70° (ENE) 20:20:35 437.432
NUDT-PHONESAT 24 Jun 20:22:16 20:23:29 11° 269° (W) 20:24:41 437.300
HO-68 24 Jun 20:29:12 20:36:19 65° 257° (WSW) 20:43:30 435.675
PCSat 24 Jun 20:42:49 20:45:57 15° 40° (NE) 20:49:06 145.827
CUTE-I 24 Jun 20:47:01 20:48:36 11° 272° (W) 20:50:12 437.470
AO-85 24 Jun 20:53:58 20:56:59 20° 113° (ESE) 20:59:55 145.980
SEEDS 24 Jun 20:54:13 20:58:14 44° 261° (W) 21:02:16 437.485
AO-73 24 Jun 21:08:07 21:12:35 59° 74° (ENE) 21:17:06 145.935
CUBEBUG 2 24 Jun 21:09:37 21:13:56 42° 263° (W) 21:18:24 437.445
CUTE 1.7 + AOD 2 24 Jun 21:10:47 21:13:53 19° 267° (W) 21:17:00 437.475
XW-2A 24 Jun 21:28:24 21:29:34 11° 269° (W) 21:30:45 145.665 - 145.685
BEESAT 3 24 Jun 21:31:09 21:34:31 27° 114° (ESE) 21:37:57 437.485
EO-88 24 Jun 21:31:15 21:32:45 12° 65° (ENE) 21:34:15 145.990 - 145.960
STRAND 1 24 Jun 21:31:55 21:37:00 59° 288° (WNW) 21:42:03 437.568
Oscar 11 24 Jun 21:36:46 21:41:07 87° 252° (WSW) 21:45:29 .
RS-15 24 Jun 21:40:17 21:52:00 59° 112° (ESE) 22:03:57 29.354- 29.394
ZACube-1 24 Jun 21:42:36 21:47:02 53° 261° (W) 21:51:33 437.345
NO-84 24 Jun 21:43:43 21:45:32 13° 121° (ESE) 21:47:24 435.350 FM
UWE-3 24 Jun 21:45:58 21:49:57 29° 265° (W) 21:53:59 435.000/436.395/437.385
AAUSAT CUBESAT 2 24 Jun 21:49:11 21:52:29 23° 265° (W) 21:55:48 437.432
DELFI C3 24 Jun 21:49:27 21:52:55 31° 71° (ENE) 21:56:23 145.870
O/OREOS (USA 219) 24 Jun 21:56:41 22:00:23 25° 103° (ESE) 22:04:05 437.305
YUBILEINY 24 Jun 22:15:26 22:23:22 40° 86° (E) 22:31:20 435.215
FO-29 24 Jun 22:24:27 22:31:15 31° 93° (E) 22:37:57 435.910
PCSat 24 Jun 22:24:46 22:30:14 81° 60° (ENE) 22:35:39 145.827
BEESAT 2 24 Jun 22:27:26 22:31:07 38° 116° (ESE) 22:34:52 435.950
UNISAT 6 24 Jun 22:30:04 22:32:52 16° 91° (E) 22:35:37 437.425
AO-85 24 Jun 22:33:23 22:37:08 36° 309° (NW) 22:40:48 145.980
AO-73 24 Jun 22:46:55 22:49:10 14° 270° (W) 22:51:27 145.935
EO-88 24 Jun 23:02:29 23:06:01 46° 261° (W) 23:09:34 145.990 - 145.960
BEESAT 3 24 Jun 23:08:34 23:12:02 28° 311° (NW) 23:15:34 437.485
NO-84 24 Jun 23:18:32 23:22:28 81° 318° (NW) 23:26:43 435.350 FM
M-CUBED/EXP-1 PRIME 24 Jun 23:20:28 23:24:11 79° 108° (ESE) 23:28:11 437.505
TIGRISAT 24 Jun 23:23:25 23:28:00 52° 99° (E) 23:32:27 435.000
DELFI C3 24 Jun 23:24:57 23:27:45 19° 267° (W) 23:30:32 145.870
LO-87 24 Jun 23:28:19 23:31:39 40° 73° (ENE) 23:35:01 145.935 - 145.965
PRISM 24 Jun 23:32:29 23:36:35 71° 102° (ESE) 23:40:41 437.425
O/OREOS (USA 219) 24 Jun 23:35:33 23:39:38 32° 300° (WNW) 23:43:43 437.305
ESTCUBE 1 24 Jun 23:47:06 23:51:22 44° 72° (ENE) 23:55:39 437.505/2401.250
SO-50 24 Jun 23:48:16 23:52:37 44° 52° (NE) 23:56:59 436.795
RS-15 24 Jun 23:53:08 00:04:52 50° 316° (NW) 00:16:48 29.354- 29.394
VELOX 1 24 Jun 23:55:00 23:57:08 13° 62° (ENE) 23:59:17 145.980
UNISAT 6 25 Jun 00:05:20 00:09:53 52° 287° (WNW) 00:14:19 437.425
BEESAT 2 25 Jun 00:05:51 00:09:00 22° 314° (NW) 00:12:11 435.950
FO-29 25 Jun 00:08:54 00:16:30 59° 290° (WNW) 00:24:06 435.910
PCSat 25 Jun 00:10:19 00:12:53 14° 257° (WSW) 00:15:26 145.827
YUBILEINY 25 Jun 00:11:39 00:19:59 46° 286° (WNW) 00:28:25 435.215
SPROUT 25 Jun 00:21:04 00:24:35 26° 68° (ENE) 00:28:08 437.525
DUCHIFAT 1 25 Jun 00:21:39 00:22:38 11° 90° (E) 00:23:35 145.980
NANOSAT C BR1 25 Jun 00:28:21 00:30:50 15° 92° (E) 00:33:16 145.865
AIST 2D 25 Jun 00:29:47 00:33:02 34° 97° (E) 00:36:14 435.315
50 SAT 25 Jun 00:56:33 00:59:12 22° 70° (ENE) 01:01:53 437.505
NO-84 25 Jun 00:57:29 01:00:39 21° 339° (NNW) 01:03:56 435.350 FM
TIGRISAT 25 Jun 01:01:14 01:04:13 17° 296° (WNW) 01:07:09 435.000
LO-87 25 Jun 01:03:57 01:05:17 12° 269° (W) 01:06:38 145.935 - 145.965
POLYITAN 1 25 Jun 01:03:59 01:08:03 41° 98° (E) 01:12:05 437.675
PRISM 25 Jun 01:10:33 01:11:16 10° 299° (WNW) 01:12:00 437.425
QB50P2 25 Jun 01:14:38 01:18:53 61° 101° (E) 01:23:06 145.880/145.840
ESTCUBE 1 25 Jun 01:25:22 01:28:22 17° 268° (W) 01:31:23 437.505/2401.250
VELOX 1 25 Jun 01:28:45 01:33:04 61° 259° (W) 01:37:25 145.980
SO-50 25 Jun 01:29:24 01:32:47 21° 248° (WSW) 01:36:10 436.795
BUGSAT 1 25 Jun 01:33:07 01:36:22 21° 94° (E) 01:39:35 437.445
EO-79 25 Jun 01:39:27 01:43:44 77° 284° (WNW) 01:47:59 145.935-145.965
DX 1 25 Jun 01:50:53 01:55:12 78° 74° (ENE) 01:59:32 434.975-435.025
DUCHIFAT 1 25 Jun 01:54:29 01:58:43 65° 285° (WNW) 02:02:54 145.980
SPROUT 25 Jun 01:56:45 02:00:23 27° 264° (W) 02:04:04 437.525
FO-29 25 Jun 01:56:48 01:59:58 13° 309° (NW) 02:03:09 435.910
NANOSAT C BR1 25 Jun 02:02:40 02:06:46 46° 288° (WNW) 02:10:50 145.865
AIST 2D 25 Jun 02:04:06 02:05:55 14° 293° (WNW) 02:07:43 435.315
UKube-1 25 Jun 02:09:39 02:13:57 84° 76° (ENE) 02:18:16 .
RS-15 25 Jun 02:11:59 02:21:29 24° 348° (NNW) 02:30:55 29.354- 29.394
Oscar 19 25 Jun 02:26:27 02:30:58 30° 96° (E) 02:35:26 437.125/150
50 SAT 25 Jun 02:29:29 02:31:57 19° 265° (W) 02:34:25 437.505
NO-84 25 Jun 02:37:31 02:39:38 13° 0° (N) 02:41:46 435.350 FM
POLYITAN 1 25 Jun 02:40:37 02:43:30 18° 295° (WNW) 02:46:24 437.675
QB50P2 25 Jun 02:52:11 02:54:09 13° 297° (WNW) 02:56:06 145.880/145.840
MOZHAYETS 4 25 Jun 02:57:46 03:00:42 17° 64° (ENE) 03:03:39
BUGSAT 1 25 Jun 03:07:56 03:11:46 33° 290° (WNW) 03:15:34 437.445
ITUPSAT 1 25 Jun 03:08:23 03:12:42 34° 68° (ENE) 03:17:02 437.325
Gurwin Techsat 1B 25 Jun 03:13:23 03:18:35 53° 100° (E) 03:23:46 435.225
BEESAT 25 Jun 03:18:38 03:23:09 43° 70° (ENE) 03:27:42 436.000
AO-7 25 Jun 03:29:18 03:33:23 14° 88° (E) 03:37:28 .
Oscar 19 25 Jun 04:05:43 04:10:13 32° 293° (WNW) 04:14:44 437.125/150
NO-84 25 Jun 04:15:18 04:18:37 21° 21° (NNE) 04:21:55 435.350 FM
RS-15 25 Jun 04:29:18 04:39:36 29° 24° (NNE) 04:49:33 29.354- 29.394
MOZHAYETS 4 25 Jun 04:32:54 04:37:26 53° 260° (W) 04:41:59
KKS-1 25 Jun 04:35:56 04:39:20 22° 66° (ENE) 04:42:46 437.445
ITAMSAT 1 25 Jun 04:41:10 04:46:11 44° 99° (E) 04:51:11 435.822/435.867
ITUPSAT 1 25 Jun 04:46:32 04:50:32 26° 265° (W) 04:54:34 437.325
Gurwin Techsat 1B 25 Jun 04:54:15 04:58:08 21° 297° (WNW) 05:02:01 435.225
BEESAT 25 Jun 04:57:37 05:01:06 20° 267° (W) 05:04:37 436.000
STARS 25 Jun 05:07:44 05:10:58 20° 65° (ENE) 05:14:12 437.465
CUBESAT XI-V 25 Jun 05:11:55 05:16:32 74° 75° (ENE) 05:21:10 437.345
AO-7 25 Jun 05:18:58 05:27:24 77° 106° (ESE) 05:35:46 .
AO-85 25 Jun 05:23:51 05:26:59 21° 46° (NE) 05:30:14 145.980
BEESAT 3 25 Jun 05:47:45 05:50:43 19° 45° (NE) 05:53:39 437.485
NO-84 25 Jun 05:52:27 05:56:51 75° 41° (NE) 06:01:07 435.350 FM
KKS-1 25 Jun 06:11:38 06:15:40 35° 262° (W) 06:19:46 437.445
DOVE 4 25 Jun 06:13:59 06:17:37 20° 93° (E) 06:21:21 437.250
ITAMSAT 1 25 Jun 06:21:15 06:25:22 24° 296° (WNW) 06:29:28 435.822/435.867
XW-2D 25 Jun 06:35:34 06:36:17 10° 90° (E) 06:37:00 145.860 - 145.880
LilacSat-2 25 Jun 06:42:00 06:43:55 13° 91° (E) 06:45:49 437.200
RS-15 25 Jun 06:42:32 06:54:47 72° 53° (NE) 07:06:20 29.354- 29.394
STARS 25 Jun 06:42:58 06:47:02 37° 262° (W) 06:51:08 437.465
XW-2B 25 Jun 06:43:33 06:45:20 13° 91° (E) 06:47:07 145.730 - 145.750
BEESAT 2 25 Jun 06:44:58 06:48:26 26° 48° (NE) 06:51:51 435.950
CUBESAT XI-V 25 Jun 06:53:16 06:54:24 11° 271° (W) 06:55:32 437.345
XW-2C 25 Jun 06:58:07 07:00:57 20° 94° (E) 07:03:45 145.795 - 145.815
AO-85 25 Jun 07:03:34 07:07:31 44° 242° (WSW) 07:11:43 145.980
STRAND 1 25 Jun 07:09:50 07:13:57 25° 65° (ENE) 07:18:05 437.568
AO-7 25 Jun 07:12:49 07:19:21 26° 306° (NW) 07:25:53 .
KAITUO 1B 25 Jun 07:13:34 07:16:35 23° 95° (E) 07:19:33 145.475/437.950
CUTE-I 25 Jun 07:19:47 07:24:40 34° 97° (E) 07:29:31 437.470
BEESAT 3 25 Jun 07:24:41 07:28:31 44° 243° (WSW) 07:32:16 437.485
NO-84 25 Jun 07:31:17 07:33:56 16° 237° (WSW) 07:36:32 435.350 FM
NUDT-PHONESAT 25 Jun 07:49:35 07:53:17 67° 101° (E) 07:56:56 437.300
DOVE 4 25 Jun 07:50:46 07:55:27 47° 287° (WNW) 08:00:21 437.250
HO-68 25 Jun 07:57:34 08:03:18 25° 93° (E) 08:08:59 435.675
XW-2F 25 Jun 08:03:27 08:07:10 62° 285° (WNW) 08:10:50 145.980 - 146.000
O/OREOS (USA 219) 25 Jun 08:05:44 08:10:05 48° 64° (ENE) 08:14:24 437.305
XW-2D 25 Jun 08:07:06 08:10:46 51° 286° (WNW) 08:14:24 145.860 - 145.880
LilacSat-2 25 Jun 08:14:49 08:18:23 39° 287° (WNW) 08:21:54 437.200
XW-2B 25 Jun 08:16:10 08:19:44 41° 287° (WNW) 08:23:15 145.730 - 145.750
BEESAT 2 25 Jun 08:22:35 08:26:12 31° 245° (WSW) 08:29:45 435.950
YUBILEINY 25 Jun 08:25:54 08:31:54 20° 62° (ENE) 08:37:52 435.215
Tancredo 1 25 Jun 08:30:47 08:33:16 23° 135° (SE) 08:35:45 437.200
XW-2C 25 Jun 08:31:56 08:35:08 26° 290° (WNW) 08:38:17 145.795 - 145.815
SEEDS 25 Jun 08:37:56 08:41:32 28° 96° (E) 08:45:08 437.485
FO-29 25 Jun 08:40:27 08:43:00 13° 51° (NE) 08:45:38 435.910
ISS 25 Jun 08:44:28 08:46:38 17° 132° (SE) 08:48:49 437.550
KAITUO 1B 25 Jun 08:47:34 08:50:29 22° 291° (WNW) 08:53:22 145.475/437.950
XW-2A 25 Jun 08:47:36 08:50:51 39° 99° (E) 08:54:02 145.665 - 145.685
STRAND 1 25 Jun 08:48:04 08:52:53 41° 262° (W) 08:57:45 437.568
CUTE 1.7 + AOD 2 25 Jun 08:54:01 08:58:13 71° 101° (E) 09:02:23 437.475
RS-15 25 Jun 08:56:05 09:06:14 34° 256° (WSW) 09:15:59 29.354- 29.394
AO-73 25 Jun 08:58:34 08:59:54 11° 88° (E) 09:01:13 145.935
CUTE-I 25 Jun 08:59:55 09:04:37 31° 293° (WNW) 09:09:17 437.470
CUBEBUG 2 25 Jun 09:00:09 09:04:39 42° 98° (E) 09:09:00 437.445
Oscar 11 25 Jun 09:24:57 09:27:46 17° 92° (E) 09:30:35 .
UNISAT 6 25 Jun 09:29:13 09:31:50 15° 63° (ENE) 09:34:29 437.425
AAUSAT CUBESAT 2 25 Jun 09:30:02 09:34:03 51° 99° (E) 09:38:03 437.432
ZACube-1 25 Jun 09:31:10 09:35:06 29° 95° (E) 09:38:55 437.345
UWE-3 25 Jun 09:34:48 09:39:22 59° 100° (E) 09:43:46 435.000/436.395/437.385
HO-68 25 Jun 09:44:24 09:51:27 62° 291° (WNW) 09:58:28 435.675
O/OREOS (USA 219) 25 Jun 09:46:22 09:49:02 16° 261° (W) 09:51:43 437.305
Tancredo 1 25 Jun 10:05:53 10:08:44 37° 332° (NNW) 10:11:36 437.200
M-CUBED/EXP-1 PRIME 25 Jun 10:07:02 10:10:21 79° 251° (WSW) 10:13:37 437.505
SEEDS 25 Jun 10:13:46 10:17:06 24° 292° (WNW) 10:20:25 437.485
ISS 25 Jun 10:19:36 10:22:49 56° 328° (NNW) 10:26:04 437.550
FO-29 25 Jun 10:20:35 10:26:33 69° 72° (ENE) 10:33:23 435.910
YUBILEINY 25 Jun 10:21:06 10:30:00 90° 102° (ESE) 10:38:48 435.215
PRISM 25 Jun 10:21:30 10:25:24 49° 73° (ENE) 10:29:20 437.425
TIGRISAT 25 Jun 10:21:37 10:25:59 45° 72° (ENE) 10:30:28 435.000
XW-2A 25 Jun 10:21:59 10:23:12 12° 295° (WNW) 10:24:24 145.665 - 145.685
AO-73 25 Jun 10:32:10 10:36:36 66° 285° (WNW) 10:40:53 145.935
EO-88 25 Jun 10:32:16 10:34:16 14° 92° (E) 10:36:15 145.990 - 145.960
CUTE 1.7 + AOD 2 25 Jun 10:32:25 10:33:27 11° 298° (WNW) 10:34:30 437.475
CUBEBUG 2 25 Jun 10:37:27 10:40:56 21° 295° (WNW) 10:44:21 437.445
Oscar 11 25 Jun 11:00:01 11:04:05 41° 288° (WNW) 11:08:07 .
DELFI C3 25 Jun 11:00:20 11:04:11 50° 99° (E) 11:08:01 145.870
UNISAT 6 25 Jun 11:03:29 11:08:00 61° 260° (W) 11:12:39 437.425
AIST 2D 25 Jun 11:05:16 11:07:12 14° 67° (ENE) 11:09:08 435.315
AAUSAT CUBESAT 2 25 Jun 11:06:59 11:09:05 14° 296° (WNW) 11:11:10 437.432
ZACube-1 25 Jun 11:07:33 11:11:15 26° 292° (WNW) 11:14:51 437.345
UWE-3 25 Jun 11:12:43 11:15:16 15° 297° (WNW) 11:17:47 435.000/436.395/437.385
NANOSAT C BR1 25 Jun 11:21:27 11:23:08 12° 62° (ENE) 11:24:50 145.865
HO-68 25 Jun 11:35:06 11:37:45 12° 311° (NW) 11:40:24 435.675
Tancredo 1 25 Jun 11:43:20 11:44:58 14° 351° (N) 11:46:36 437.200
POLYITAN 1 25 Jun 11:56:25 12:00:12 31° 70° (ENE) 12:04:00 437.675
ISS 25 Jun 11:57:36 11:59:51 17° 347° (NNW) 12:02:06 437.550
PRISM 25 Jun 11:59:05 12:00:58 13° 268° (W) 12:02:50 437.425
TIGRISAT 25 Jun 11:59:45 12:02:53 18° 268° (W) 12:06:05 435.000
EO-88 25 Jun 12:04:43 12:08:04 35° 288° (WNW) 12:11:24 145.990 - 145.960
QB50P2 25 Jun 12:06:55 12:10:57 44° 72° (ENE) 12:15:02 145.880/145.840
FO-29 25 Jun 12:08:13 12:12:24 19° 273° (W) 12:16:55 435.910
YUBILEINY 25 Jun 12:20:07 12:25:28 18° 283° (WNW) 12:30:49 435.215
BUGSAT 1 25 Jun 12:23:32 12:25:59 15° 64° (ENE) 12:28:27 437.445
LO-87 25 Jun 12:28:08 12:31:41 50° 99° (E) 12:35:14 145.935 - 145.965
EO-79 25 Jun 12:31:19 12:35:32 77° 76° (ENE) 12:39:50 145.935-145.965
DELFI C3 25 Jun 12:36:43 12:38:32 13° 295° (WNW) 12:40:19 145.870
AIST 2D 25 Jun 12:36:48 12:40:05 35° 262° (W) 12:43:23 435.315
DUCHIFAT 1 25 Jun 12:45:39 12:49:53 90° 126° (SE) 12:54:10 145.980
NANOSAT C BR1 25 Jun 12:54:05 12:58:17 64° 258° (WSW) 13:02:32 145.865
Gurwin Techsat 1B 25 Jun 12:58:48 13:00:39 12° 57° (ENE) 13:02:31 435.225
PCSat 25 Jun 13:06:07 13:11:30 75° 116° (ESE) 13:16:57 145.827
ESTCUBE 1 25 Jun 13:15:44 13:20:14 84° 282° (WNW) 13:24:42 437.505/2401.250
VELOX 1 25 Jun 13:18:57 13:22:35 24° 95° (E) 13:26:11 145.980
Tancredo 1 25 Jun 13:19:46 13:21:32 14° 11° (N) 13:23:17 437.200
POLYITAN 1 25 Jun 13:32:38 13:36:00 22° 266° (W) 13:39:23 437.675
ISS 25 Jun 13:35:21 13:37:19 15° 8° (N) 13:39:18 437.550
DX 1 25 Jun 13:40:36 13:42:40 13° 91° (E) 13:44:44 434.975-435.025
SPROUT 25 Jun 13:41:29 13:45:39 47° 99° (E) 13:49:48 437.525
Oscar 19 25 Jun 13:43:09 13:48:02 45° 70° (ENE) 13:52:56 437.125/150
QB50P2 25 Jun 13:44:22 13:46:57 16° 268° (W) 13:49:35 145.880/145.840
50 SAT 25 Jun 13:51:08 13:53:50 22° 96° (E) 13:56:32 437.505
BUGSAT 1 25 Jun 13:56:57 14:00:56 46° 261° (W) 14:04:59 437.445
UKube-1 25 Jun 13:58:07 14:00:17 14° 92° (E) 14:02:27 .
LO-87 25 Jun 14:03:39 14:04:40 11° 296° (WNW) 14:05:40 145.935 - 145.965
SO-50 25 Jun 14:04:50 14:06:59 13° 108° (ESE) 14:09:08 436.795
AO-7 25 Jun 14:27:54 14:34:11 25° 53° (NE) 14:40:29 .
Gurwin Techsat 1B 25 Jun 14:34:26 14:39:45 84° 75° (ENE) 14:45:06 435.225
PCSat 25 Jun 14:51:37 14:55:29 20° 316° (NW) 14:59:24 145.827
Tancredo 1 25 Jun 14:54:47 14:57:43 43° 31° (NNE) 15:00:38 437.200
VELOX 1 25 Jun 14:55:07 14:59:01 31° 291° (WNW) 15:02:55 145.980
ISS 25 Jun 15:11:26 15:14:32 35° 27° (NNE) 15:17:36 437.550
DX 1 25 Jun 15:14:54 15:19:11 56° 287° (WNW) 15:23:27 434.975-435.025
SPROUT 25 Jun 15:18:30 15:21:10 16° 296° (WNW) 15:23:48 437.525
BEESAT 25 Jun 15:21:32 15:22:21 10° 89° (E) 15:23:10 436.000
Oscar 19 25 Jun 15:23:38 15:27:33 22° 267° (W) 15:31:28 437.125/150
50 SAT 25 Jun 15:23:58 15:26:31 20° 291° (WNW) 15:29:03 437.505
UKube-1 25 Jun 15:32:24 15:36:36 53° 288° (WNW) 15:40:49 .
SO-50 25 Jun 15:42:21 15:46:53 68° 304° (NW) 15:51:25 436.795
ITAMSAT 1 25 Jun 15:59:03 16:04:12 69° 73° (ENE) 16:09:25 435.822/435.867
AO-7 25 Jun 16:17:43 16:26:02 82° 252° (WSW) 16:34:27 .
Gurwin Techsat 1B 25 Jun 16:18:31 16:20:20 12° 271° (W) 16:22:09 435.225
MOZHAYETS 4 25 Jun 16:27:52 16:32:05 35° 97° (E) 16:36:14
Tancredo 1 25 Jun 16:30:50 16:33:06 19° 226° (SW) 16:35:21 437.200
ITUPSAT 1 25 Jun 16:45:48 16:50:37 80° 104° (ESE) 16:55:23 437.325
ISS 25 Jun 16:48:01 16:50:58 30° 224° (SW) 16:53:53 437.550
BEESAT 25 Jun 16:55:53 17:00:41 80° 286° (WNW) 17:05:27 436.000
CUBESAT XI-V 25 Jun 17:09:18 17:12:26 18° 92° (E) 17:15:32 437.345
DOVE 4 25 Jun 17:20:40 17:23:20 17° 65° (ENE) 17:26:03 437.250
SO-50 25 Jun 17:26:30 17:28:11 12° 325° (NW) 17:29:52 436.795
XW-2C 25 Jun 17:41:08 17:42:19 11° 64° (ENE) 17:43:30 145.795 - 145.815
ITAMSAT 1 25 Jun 17:41:25 17:44:09 14° 270° (W) 17:46:54 435.822/435.867
KAITUO 1B 25 Jun 17:54:58 17:56:34 12° 65° (ENE) 17:58:10 145.475/437.950
KKS-1 25 Jun 18:01:56 18:06:12 41° 99° (E) 18:10:26 437.445
MOZHAYETS 4 25 Jun 18:05:24 18:09:02 23° 293° (WNW) 18:12:38
AO-7 25 Jun 18:15:24 18:19:58 16° 271° (W) 18:24:34 .
ITUPSAT 1 25 Jun 18:25:49 18:27:45 12° 300° (WNW) 18:29:43 437.325
HO-68 25 Jun 18:27:30 18:32:30 21° 56° (NE) 18:37:30 435.675
NUDT-PHONESAT 25 Jun 18:28:48 18:32:06 29° 71° (ENE) 18:35:24 437.300
STARS 25 Jun 18:31:50 18:35:58 36° 98° (E) 18:40:03 437.465
CUTE-I 25 Jun 18:41:30 18:46:41 56° 72° (ENE) 18:51:55 437.470
XW-2F 25 Jun 18:43:46 18:47:31 58° 75° (ENE) 18:51:17 145.980 - 146.000
CUBESAT XI-V 25 Jun 18:45:38 18:50:00 44° 288° (WNW) 18:54:21 437.345
XW-2D 25 Jun 18:47:41 18:51:30 72° 76° (ENE) 18:55:20 145.860 - 145.880
LilacSat-2 25 Jun 18:55:54 18:59:47 87° 264° (W) 19:03:40 437.200
XW-2B 25 Jun 18:56:39 19:00:30 89° 67° (ENE) 19:04:21 145.730 - 145.750
DOVE 4 25 Jun 18:56:46 19:00:41 41° 262° (W) 19:04:45 437.250
XW-2C 25 Jun 19:12:14 19:16:01 56° 260° (W) 19:19:49 145.795 - 145.815
XW-2A 25 Jun 19:19:54 19:21:53 15° 67° (ENE) 19:23:52 145.665 - 145.685
KAITUO 1B 25 Jun 19:26:29 19:30:09 48° 261° (W) 19:33:50 145.475/437.950
SEEDS 25 Jun 19:29:56 19:33:03 21° 67° (ENE) 19:36:10 437.485
KKS-1 25 Jun 19:39:13 19:42:27 20° 295° (WNW) 19:45:39 437.445
